Location: Hertford
(51.8000°N, 0.0667°W)
Time: 22:16:35
(UTC+00:00)

Cosmos 2151 Rocket - Pass Details

Date: 18 September 2020
Orbit: 617 x 642 km, 82.5° (Epoch: 30 October)

Event Time Altitude Azimuth Distance (km) Brightness Sun altitude
Rises 20:22:52 0° 202° (SSW) 2,905 6.9 -20.7°
Reaches altitude 10° 20:25:08 10° 207° (SSW) 2,007 6.1 -21.0°
Maximum altitude 20:29:29 53° 285° (WNW) 781 4.3 -21.6°
Drops below altitude 10° 20:33:55 10° 3° (N) 2,038 6.6 -22.2°
Sets 20:36:14 0° 8° (N) 2,955 7.4 -22.5°
